Weather History for Antigo, WI

Change the Weather History Date:

Saturday, August 23, 2014

  Actual Average Record
Temperature  
Mean Temperature 68 °F -  
Max Temperature 71 °F 74 °F 125 °F (2004)
Min Temperature 65 °F 50 °F 39 °F (1971)
Cooling Degree Days 3    
Growing Degree Days 18 (Base 50)    
Moisture  
Dew Point 68 °F    
Average Humidity 97    
Maximum Humidity 100    
Minimum Humidity 90    
Precipitation  
Precipitation 0.00 in - - ()
Sea Level Pressure  
Sea Level Pressure 30.05 in    
Wind  
Wind Speed 5 mph (ESE)    
Max Wind Speed 13 mph    
Max Gust Speed 16 mph    
Visibility 3 miles    
Events Fog    
Averages and records for this station are not official NWS values.
T = Trace of Precipitation, MM = Missing Value Source: NWS Daily Summary

Daily Weather History Graph

Daily Weather History Graph

Search for Another Location

Airport:

Trip Planner

Search our weather history database for the weather conditions in past years. The results will help you decide how hot, cold, wet, or windy it might be!

Date:

Astronomy

Aug. 23, 2014 Rise Set
Actual Time 6:07 AM CDT 7:49 PM CDT
Civil Twilight 5:36 AM CDT 8:20 PM CDT
Nautical Twilight 4:58 AM CDT 8:58 PM CDT
Astronomical Twilight 4:16 AM CDT 9:39 PM CDT
Moon 4:21 AM CDT 6:34 PM CDT
Length of Visible Light 14h 44m
Length of Day
13h 42m
Waning Crescent, 3% of the Moon is Illuminated
Aug 23
Waning Crescent
Aug 25
New
Sep 2
First Quarter
Sep 8
Full
Sep 15
Last Quarter

Hourly Weather History & Observations

Time (CDT) Temp. Dew Point Humidity Pressure Visibility Wind Dir Wind Speed Gust Speed Precip Events Conditions
12:35 AM 69.1 °F 69.1 °F 100% 30.05 in 2.0 mi Calm Calm - N/A   Overcast
12:55 AM 68.9 °F 68.9 °F 100% 30.05 in 2.5 mi SE 8.1 mph - N/A   Overcast
1:15 AM 69.1 °F 68.9 °F 99% 30.05 in 3.0 mi SE 3.5 mph - N/A   Overcast
1:35 AM 69.1 °F 68.5 °F 98% 30.04 in 3.0 mi ESE 4.6 mph - N/A   Overcast
1:55 AM 68.4 °F 68.0 °F 99% 30.03 in 2.5 mi ESE 5.8 mph - N/A   Overcast
2:15 AM 68.4 °F 68.2 °F 99% 30.04 in 2.5 mi Calm Calm - N/A   Overcast
2:35 AM 68.4 °F 68.2 °F 99% 30.04 in 2.5 mi East 4.6 mph - N/A   Overcast
2:55 AM 68.4 °F 68.2 °F 99% 30.04 in 2.5 mi Calm Calm - N/A   Overcast
3:15 AM 68.2 °F 68.0 °F 99% 30.05 in 2.5 mi SE 4.6 mph - N/A   Overcast
3:55 AM 68.0 °F 68.0 °F 100% 30.04 in 2.5 mi SE 4.6 mph - N/A   Overcast
4:15 AM 68.0 °F 67.5 °F 98% 30.04 in 2.5 mi Calm Calm - N/A   Overcast
4:35 AM 68.0 °F 67.5 °F 98% 30.03 in 2.5 mi ESE 4.6 mph - N/A   Overcast
4:55 AM 68.0 °F 67.5 °F 98% 30.03 in 2.5 mi ESE 4.6 mph - N/A   Overcast
5:35 AM 67.1 °F 67.1 °F 100% 30.02 in 2.5 mi Calm Calm - N/A   Overcast
5:55 AM 67.1 °F 67.1 °F 100% 30.03 in 2.0 mi ESE 3.5 mph - N/A   Overcast
6:15 AM 67.1 °F 67.1 °F 100% 30.03 in 1.2 mi ESE 3.5 mph - N/A   Overcast
6:35 AM 67.1 °F 67.1 °F 100% 30.04 in 0.8 mi Calm Calm - N/A   Overcast
6:55 AM 67.1 °F 67.1 °F 100% 30.04 in 0.2 mi East 3.5 mph - N/A Fog Fog
7:15 AM 67.3 °F 67.3 °F 100% 30.04 in 0.2 mi East 5.8 mph - N/A   Light Drizzle
7:35 AM 67.1 °F 67.1 °F 100% 30.04 in 0.8 mi Calm Calm - N/A   Overcast
7:55 AM 67.3 °F 67.3 °F 100% 30.05 in 0.8 mi East 4.6 mph - N/A   Overcast
8:15 AM 67.3 °F 67.3 °F 100% 30.05 in 0.5 mi East 4.6 mph - N/A Fog Fog
8:35 AM 67.5 °F 67.5 °F 100% 30.05 in 0.5 mi ENE 3.5 mph - N/A Fog Fog
8:55 AM 67.5 °F 67.5 °F 100% 30.06 in 1.2 mi East 3.5 mph - N/A   Overcast
9:15 AM 67.8 °F 67.8 °F 100% 30.07 in 1.0 mi ESE 4.6 mph - N/A   Overcast
9:35 AM 68.0 °F 68.0 °F 100% 30.07 in 1.0 mi East 4.6 mph - N/A   Overcast
9:55 AM 68.2 °F 68.2 °F 100% 30.07 in 1.5 mi ESE 4.6 mph - N/A   Overcast
10:15 AM 68.4 °F 68.4 °F 100% 30.06 in 1.0 mi ESE 4.6 mph - N/A   Overcast
10:35 AM 68.4 °F 68.2 °F 99% 30.07 in 1.2 mi ESE 4.6 mph - N/A   Overcast
11:15 AM 68.0 °F 68.0 °F 100% 30.07 in 1.0 mi East 6.9 mph - N/A   Overcast
11:35 AM 68.2 °F 68.2 °F 100% 30.07 in 1.0 mi ESE 6.9 mph - N/A   Overcast
11:55 AM 68.4 °F 68.2 °F 99% 30.06 in 1.5 mi ESE 6.9 mph - N/A   Overcast
12:15 PM 68.9 °F 68.5 °F 99% 30.06 in 1.8 mi ESE 6.9 mph - N/A   Overcast
12:35 PM 69.4 °F 68.7 °F 98% 30.05 in 2.0 mi ESE 8.1 mph - N/A   Overcast
12:55 PM 70.0 °F 68.9 °F 96% 30.05 in 3.0 mi SE 8.1 mph - N/A   Overcast
1:15 PM 70.0 °F 69.1 °F 97% 30.05 in 2.0 mi ESE 9.2 mph - N/A   Overcast
1:35 PM 70.5 °F 69.3 °F 96% 30.05 in 3.0 mi SE 12.7 mph - N/A   Overcast
1:55 PM 70.5 °F 69.3 °F 96% 30.05 in 2.5 mi SE 11.5 mph - N/A   Overcast
2:15 PM 70.0 °F 69.4 °F 98% 30.05 in 1.5 mi SE 8.1 mph - N/A   Overcast
2:35 PM 70.2 °F 69.6 °F 98% 30.05 in 1.2 mi ESE 8.1 mph - N/A   Overcast
2:55 PM 70.3 °F 69.8 °F 98% 30.05 in 1.2 mi ESE 10.4 mph - N/A   Overcast
3:15 PM 70.7 °F 69.8 °F 97% 30.04 in 1.8 mi ESE 9.2 mph - N/A   Overcast
3:35 PM 70.7 °F 69.8 °F 97% 30.04 in 2.0 mi East 8.1 mph - N/A   Overcast
3:55 PM 70.7 °F 69.8 °F 97% 30.04 in 2.5 mi East 9.2 mph - N/A   Overcast
4:15 PM 71.1 °F 69.8 °F 96% 30.03 in 2.5 mi East 8.1 mph - N/A   Overcast
4:35 PM 71.2 °F 69.8 °F 95% 30.04 in 3.0 mi East 10.4 mph - N/A   Overcast
4:55 PM 71.6 °F 69.8 °F 94% 30.04 in 4.0 mi ESE 10.4 mph - N/A   Overcast
5:15 PM 71.8 °F 69.8 °F 93% 30.04 in 4.0 mi East 9.2 mph - N/A   Overcast
5:35 PM 71.6 °F 69.6 °F 93% 30.04 in 4.0 mi East 10.4 mph - N/A   Overcast
5:55 PM 71.1 °F 69.3 °F 94% 30.04 in 4.0 mi East 10.4 mph - N/A   Overcast
6:15 PM 70.7 °F 68.9 °F 94% 30.05 in 5.0 mi ESE 11.5 mph - N/A   Overcast
6:35 PM 70.2 °F 68.9 °F 96% 30.05 in 4.0 mi East 6.9 mph 16.1 mph N/A   Overcast
6:55 PM 70.0 °F 68.5 °F 95% 30.05 in 5.0 mi East 11.5 mph - N/A   Overcast
7:15 PM 69.8 °F 68.4 °F 95% 30.05 in 5.0 mi East 10.4 mph - N/A   Overcast
7:35 PM 69.4 °F 68.0 °F 95% 30.06 in 5.0 mi ESE 9.2 mph - N/A   Overcast
7:55 PM 69.1 °F 68.0 °F 96% 30.06 in 7.0 mi ESE 8.1 mph - N/A   Overcast
8:35 PM 68.5 °F 67.1 °F 95% 30.07 in 7.0 mi ESE 10.4 mph - N/A   Overcast
8:55 PM 68.4 °F 66.6 °F 94% 30.07 in 7.0 mi ESE 8.1 mph - N/A   Overcast
9:15 PM 67.8 °F 65.7 °F 93% 30.08 in 10.0 mi East 9.2 mph - N/A   Overcast
9:35 PM 67.1 °F 64.8 °F 92% 30.08 in 10.0 mi ESE 10.4 mph - N/A   Overcast
9:55 PM 67.1 °F 64.2 °F 90% 30.08 in 10.0 mi East 6.9 mph - N/A   Overcast
10:15 PM 66.4 °F 63.5 °F 90% 30.08 in 10.0 mi East 6.9 mph - N/A   Overcast
11:15 PM 65.3 °F 63.7 °F 94% 30.08 in 10.0 mi ESE 4.6 mph - N/A   Overcast
11:35 PM 65.3 °F 63.7 °F 94% 30.08 in 10.0 mi ESE 4.6 mph - N/A   Scattered Clouds
11:55 PM 65.1 °F 63.7 °F 95% 30.08 in 10.0 mi East 4.6 mph - N/A   Clear